Location: Arpaise
(41.0333°N, 14.7333°E)
Time: 01:40:44
(UTC+00:00)

Cosmos 2369 Rocket - Pass Details

Date: 05 July 2020
Orbit: 829 x 852 km, 71.0° (Epoch: 11 August)

Event Time Altitude Azimuth Distance (km) Brightness Sun altitude
Rises 23:39:37 0° 336° (NNW) 3,381 6.2 -25.8°
Reaches altitude 10° 23:42:04 10° 337° (NNW) 2,445 5.3 -25.8°
Maximum altitude 23:47:41 85° 67° (ENE) 841 2.1 -25.6°
Enters shadow 23:48:31 66° 146° (SE) 908 2.1 -25.5°
